Location: Piotrkow Trybunalski
(51.4000°N, 19.6830°E)
Time: 08:49:31
(UTC+01:00)

Transit 4A - Pass Details

Date: 07 December 2023
Orbit: 869 x 973 km, 66.8° (Epoch: 28 February)

Event Time Altitude Azimuth Distance (km) Brightness Sun altitude
Exits shadow 06:04:02 11° 258° (WSW) 2,489 9.6 -12.8°
Drops below altitude 10° 06:05:32 10° 243° (WSW) 2,578 9.8 -12.5°
Sets 06:09:59 0° 211° (SSW) 3,486 10.8 -11.9°
